www.pogodaiklimat.ru

Погода и климат >> Архив погоды >> Корея >> Санджу


ПОГОДА в Санджу

  • Прогноз погоды в Санджу
  • Монитор погоды в Санджу

АРХИВ ПОГОДЫ в Санджу

Время (UTC), дата Ветер
(напр.,м/с)
 
Видим.   Явления Облачность Т
(С)
Тd
(С)
f
(%)
Тe
(С)
Тes
(С)
Комфортность P
(гПа)
Po
(гПа)
Тmin
(С)
Tmax
(С)
R
(мм)
R24
(мм)
S
(см)
00 11.06 СВ 3 16 км ясно +19.1 +12.3 65 +20 +29 1010.0 998.8 +15.1 0.0
03 11.06 В 1 18 км 3/0
[]
+23.5 +12.7 51 +26 +46 жарко 1008.8 997.8
06 11.06 С 1 16 км 8/8 1500 м
[]
+24.3 +13.2 50 +26 +33 жарко 1007.4 996.5
09 11.06 С 1 15 км 1/1 1500 м
[]
+22.9 +12.8 53 +26 +28 жарко 1006.9 995.9
12 11.06 З 1 20 км 1/0
[]
+18.7 +14.7 78 +21 +21 комфорт 1008.3 997.1 +25.2
15 11.06 СЗ 1 24 км 3/0
[]
+15.6 +13.7 88 +16 +16 1010.0 998.6
18 11.06 СЗ 1 22 км 4/0
[]
+13.1 +12.3 95 +13 +13 1010.8 999.3
21 11.06 штиль 0 5000 м ясно +13.1 +12.9 99 +13 +13 1011.6 1000.1
00 12.06 СВ 1 8000 м ясно +18.6 +14.8 79 +20 +33 опасность
простуды
1011.6 1000.4 +12.5
03 12.06 ЮВ 1 14 км ясно +24.7 +14.7 54 +27 +52 опасность
солнечного
удара
1010.5 999.6
06 12.06 ЮЗ 1 22 км 3/0
[]
+27.1 +13.7 44 +29 +44 жарко 1009.1 998.2
09 12.06 З 1 20 км ясно +26.5 +12.5 42 +28 +31 жарко 1008.4 997.5
12 12.06 штиль 0 20 км 3/0
[]
+20.8 +14.6 68 +23 +23 комфорт 1009.8 998.7 +27.7
15 12.06 штиль 0 20 км 3/0
[]
+17.8 +15.6 87 +18 +18 1011.1 999.9
18 12.06 СЗ 1 16 км ясно +15.5 +14.6 94 +16 +16 1011.5 1000.1
21 12.06 штиль 0 13 км ясно +14.8 +14.3 97 +14 +15 1012.3 1000.8
00 13.06 СВ 1 18 км ясно +21.3 +16.0 72 +25 +37 комфорт 1012.0 1000.9 +14.6
03 13.06 Ю 1 17 км ясно +26.4 +18.5 62 +31 +56 опасность
солнечного
удара
1010.2 999.3
06 13.06 СВ 1 19 км 3/0
[]
+28.4 +14.9 44 +31 +46 душно 1007.7 996.9
09 13.06 З 1 19 км 8/0
[]
+27.7 +14.3 44 +30 +32 жарко 1006.9 996.1
12 13.06 Ю 1 21 км 9/0
[]
+22.6 +16.6 69 +27 +27 душно 1008.2 997.2 +29.3
15 13.06 штиль 0 17 км 8/0
[]
+19.7 +16.7 83 +22 +22 комфорт 1008.7 997.6
18 13.06 СЗ 1 16 км ?/? +18.2 +16.1 88 +20 +20 1007.8 996.6
21 13.06 З 1 13 км 10//
[]
+17.2 +15.8 91 +18 +18 1007.7 996.5
00 14.06 штиль 0 8000 м ?/? +19.5 +16.1 81 +21 +21 комфорт 1007.2 996.1 +17.0
03 14.06 СВ 1 13 км 10/0
[]
+23.0 +16.7 68 +28 +40 душно 1006.2 995.2
06 14.06 С 2 21 км 9/0
[]
+24.7 +17.6 65 +29 +37 душно 1004.1 993.3
09 14.06 штиль 0 22 км 10//
[]
+23.0 +17.4 71 +28 +30 душно 1003.2 992.3
12 14.06 15 км н/о +20.6 +17.4 82 +24 +24 комфорт 1003.6 992.5
15 14.06 штиль 0 12 км 9// 1000 м
[]
+18.7 +17.3 92 +20 +20 1003.2 992.1
18 14.06 8000 м н/о +17.3 +16.6 96 +18 +18 1001.4 990.2
21 14.06 ЮЗ 1 4600 м 8/1
[]
+17.1 +16.7 97 +18 +18 1001.1 989.9
00 15.06 СЗ 1 21 км 8/0
[]
+21.7 +15.7 69 +25 +33 комфорт 1001.1 990.1
03 15.06 40 км н/о +25.2 +17.6 63 +29 +40 душно 998.9 988.0
06 15.06 З 3 35 км 8/4 1500 м
[]
+27.1 +17.5 56 +31 +36 душно 996.7 986.0
09 15.06 З 3 30 км 6/5
[]
+26.1 +15.1 51 +29 +30 жарко 996.1 985.3
12 15.06 45 км н/о +22.6 +13.6 57 +26 +26 жарко 999.8 988.9
15 15.06 СЗ 1 45 км 3/1 1000 м
[]
+17.8 +13.9 78 +19 +19 1001.7 990.6
18 15.06 ЮЗ 1 35 км 3/0
[]
+16.8 +14.2 85 +18 +18 1002.6 991.4
21 15.06 Ю 1 19 км ясно +16.4 +14.5 89 +17 +18 1004.8 993.5
00 16.06 Ю 1 18 км ясно +21.4 +15.4 69 +25 +37 комфорт 1006.5 995.4
03 16.06 ЮВ 1 24 км 4/3 1000 м
[]
+25.3 +15.0 53 +28 +44 жарко 1006.2 995.3
06 16.06 ЮЗ 1 25 км 6/3 1500 м
[]
+26.7 +15.0 49 +29 +39 жарко 1006.3 995.4
09 16.06 25 км н/о +26.3 +14.4 48 +29 +29 жарко 1006.7 995.8
12 16.06 20 км н/о +22.3 +15.8 67 +26 +26 жарко 1009.2 998.2
15 16.06 21 км н/о +19.2 +15.4 79 +21 +21 комфорт 1011.3 1000.1
18 16.06 19 км н/о +18.1 +15.5 85 +18 +18 1011.6 1000.4
21 16.06 16 км н/о +17.6 +15.9 90 +18 +18 1012.6 1001.3
00 17.06 ЮВ 1 9000 м 8/3 600 м
[]
+22.4 +17.0 72 +27 +33 душно 1012.5 1001.4
03 17.06 З 2 15 км 1/0
[]
+26.1 +15.4 52 +29 +49 жарко 1011.7 1000.7
06 17.06 З 2 18 км ясно +28.4 +14.9 44 +31 +46 душно 1010.5 999.7
09 17.06 З 2 18 км 5/0
[]
+26.2 +14.6 49 +29 +31 жарко 1010.2 999.3
12 17.06 З 1 22 км 6/0
[]
+23.0 +15.0 61 +27 +27 душно 1011.3 1000.3 +28.6
15 17.06 Ю 1 24 км н/о +20.5 +14.6 69 +24 +24 комфорт 1012.2 1001.0
18 17.06 ЮЗ 1 19 км 6/0
[]
+18.7 +13.3 71 +21 +21 комфорт 1011.3 1000.1
21 17.06 штиль 0 19 км 8/8 1500 м
[]
+18.3 +13.7 75 +19 +19 1011.5 1000.3

 

Местоположение метеостанции Санджу (Корея): широта 36.40 долгота 128.15 высота над уровнем моря 100 м.

В архиве по умолчанию представлена погода в Санджу за последнюю неделю. Архивные данные за месяц целиком и за предыдущие месяцы, начиная с января 2011 года, Вы можете получить, выбрав интересующий диапазон дат из раскрывающегося списка и нажав кнопку "Ввод!".


*Определитесь, кто Вы:
робот инопланетянин человек

Внимание! Время в таблицах - всемирное. Для получения местного времени необходимо прибавить поправку, которая равна 9 ч.

Смотрите также архив погоды в соседних городах и на ближайших метеорологических станциях:

Погода на Чупунджнеоне (Корея) (24 км)
Погода в Куми (Корея) (35 км)
Погода в Андоне (Корея) (54 км)
Погода в Чхонджу (Корея) (68 км)
Погода в Тэджоне (Корея) (71 км)
Погода в Тэгу (Корея) (71 км)
Погода в Чинхэгу (Корея) (84 км)
Погода в Йонволе (Корея) (91 км)
Погода в Чхонане (Корея) (101 км)
Погода в Вонджу (Корея) (105 км)

Пояснения к столбцам:

Ветер - указаны скорость ветра в м/с - средняя за 10 мин, порывы в срок и между сроками (в фигурных скобках) и направление, откуда дует ветер: С - северный, СВ - северо-восточный, В - восточный, ЮВ - юго-восточный, Ю - южный, ЮЗ - юго-западный, З - западный, СЗ - северо-западный.
Видимость - горизонтальная дальность видимости в метрах или километрах. При видимости от 1 до 10 км при отсутствии осадков обычно наблюдается дымка, при ухудшении видимости до 1 км и менее - туман. В сухую погоду видимость может ухудшаться дымом, пылью или мглою.
Явления - указаны атмосферные явления, наблюдавшиеся в срок или в последний час перед сроком; фигурными скобками обозначены явления, наблюдавшиеся между сроками (за 1-3 часа до срока); квадратными скобками обозначены град или гололедные отложения с указанием их диаметра в мм.
Облачность - указаны через наклонную черту общая и нижняя облачность в баллах и высота нижней границы облаков в метрах; квадратными скобками обозначены формы облаков: Ci - перистые, Cs - перисто-слоистые, Cc - перисто-кучевые, Ac - высококучевые, As - высокослоистые, Sc - слоисто-кучевые, Ns - слоисто-дождевые, Cu - кучевые, Cb - кучево-дождевые. Подробнее классификацию облаков см. в Атласе облаков (PDF).
T - Температура воздуха - температура, измеренная на высоте 2 м над землей.
Td - Температура точки росы - температура, при понижении до которой содержащийся в воздухе водяной пар достигнет насыщения.
f - Относительная влажность воздуха - влажноcть воздуха, измеренная на высоте 2 м над землей.
Te - Эффективная температура - температура, которую ощущает одетый по сезону человек в тени. Характеристика душности погоды. При расчете учитывается влияние влажности воздуха и скорости ветра на теплоощущения человека.
Tes - Эффективная температура на солнце - температура, которую ощущает человек, с поправкой на солнечный нагрев. Характеристика знойности погоды. Зависит от высоты солнца над горизонтом, облачности и скорости ветра. Ночью, в пасмурную погоду, а также при ветре 12 м/с и более поправка равна нулю.
P - Атмосферное давление - приведенное к уровню моря атмосферное давление.
Po - Атмосферное давление - измеренное на уровне метеостанции атмосферное давление.
Tmin - Минимальная температура - минимум температуры воздуха на высоте 2 м над землей.
Tmax - Максимальная температура - максимум температуры воздуха на высоте 2 м над землей.
R - Количество осадков - Количество выпавших осадков за период времени, мм. При наведении курсора мыши на число - период времени, за который выпало указанное количество осадков.
R24 - Количество осадков - Количество выпавших осадков за 24 часа, мм.
S - Снежный покров - Высота снежного покрова, см. При наведении курсора мыши на число - состояние снежного покрова и степень покрытия местности в баллах.